Storm Lake, IA

3:50 PM CST on December 09, 2016 (GMT -0600)
Storm Lake Municipal

Weather History for KSLB - November, 2012

Change the Weather History Date:

Saturday, November 10, 2012

  Actual Average Record
Temperature  
Mean Temperature 60 °F -  
Max Temperature 75 °F 46 °F 75 °F (2012)
Min Temperature 46 °F 30 °F 17 °F (1996)
Degree Days  
Heating Degree Days 4    
Growing Degree Days 10 (Base 50)    
Moisture  
Dew Point 52 °F    
Average Humidity 74    
Maximum Humidity 100    
Minimum Humidity 38    
Precipitation  
Precipitation 0.18 in - - ()
Sea Level Pressure  
Sea Level Pressure 29.55 in    
Wind  
Wind Speed 18 mph (South)    
Max Wind Speed 36 mph    
Max Gust Speed 48 mph    
Visibility 8 miles    
Events Fog , Rain    
Averages and records for this station are not official NWS values.
T = Trace of Precipitation, MM = Missing Value Source: NWS Daily Summary

Daily Weather History Graph

Daily Weather History Graph

Search for Another Location

Airport or City:

Trip Planner

Search our weather history database for the weather conditions in past years. The results will help you decide how hot, cold, wet, or windy it might be!

Date:

Astronomy

Nov. 10, 2012 Rise Set
Actual Time 7:06 AM CST 5:02 PM CST
Civil Twilight 6:36 AM CST 5:32 PM CST
Nautical Twilight 6:02 AM CST 6:06 PM CST
Astronomical Twilight 5:29 AM CST 6:39 PM CST
Moon 3:08 AM CST (11/10) 2:53 PM CST (11/10)
Length of Visible Light 10h 55m
Length of Day
9h 55m
Waning Crescent, 14% of the Moon is Illuminated
Nov 10
Waning Crescent
Nov 13
New
Nov 20
First Quarter
Nov 28
Full
Dec 6
Last Quarter

Hourly Weather History & Observations

Time (CST) Temp. Windchill Dew Point Humidity Pressure Visibility Wind Dir Wind Speed Gust Speed Precip Events Conditions
12:15 AM 50.0 °F - 46.4 °F 87% 29.70 in 8.0 mi East 16.1 mph - N/A   Clear
12:35 AM 48.2 °F - 46.4 °F 93% 29.69 in 8.0 mi ESE 15.0 mph - N/A   Clear
12:55 AM 48.2 °F - 46.4 °F 93% 29.68 in 7.0 mi East 12.7 mph 19.6 mph N/A   Clear
4:15 AM 50.0 °F - 50.0 °F 100% 29.62 in 3.0 mi ESE 12.7 mph - N/A   Mostly Cloudy
4:35 AM 50.0 °F - 50.0 °F 100% 29.61 in 3.0 mi SE 15.0 mph - N/A   Mostly Cloudy
4:55 AM 50.0 °F - 50.0 °F 100% 29.61 in 2.0 mi ESE 12.7 mph - N/A   Overcast
5:15 AM 50.0 °F - 50.0 °F 100% 29.60 in 1.2 mi ESE 12.7 mph - N/A   Overcast
5:55 AM 50.0 °F - 50.0 °F 100% 29.59 in 0.2 mi SE 11.5 mph - N/A Fog Fog
6:35 AM 50.0 °F - 50.0 °F 100% 29.59 in 0.2 mi SE 10.4 mph - N/A Fog Fog
6:55 AM 50.0 °F - 50.0 °F 100% 29.59 in 0.2 mi SE 9.2 mph - N/A Fog Fog
7:15 AM 50.0 °F - 50.0 °F 100% 29.59 in 1.2 mi SE 13.8 mph - N/A   Mostly Cloudy
7:35 AM 50.0 °F - 50.0 °F 100% 29.58 in 3.0 mi SE 12.7 mph - N/A   Partly Cloudy
7:55 AM 51.8 °F - 51.8 °F 100% 29.59 in 5.0 mi SSE 12.7 mph - N/A   Clear
8:15 AM 55.4 °F - 53.6 °F 94% 29.59 in 10.0 mi SSE 10.4 mph - N/A   Clear
8:35 AM 55.4 °F - 53.6 °F 94% 29.58 in 10.0 mi South 11.5 mph - N/A   Clear
8:55 AM 59.0 °F - 55.4 °F 88% 29.58 in 10.0 mi South 13.8 mph - N/A   Clear
9:15 AM 62.6 °F - 55.4 °F 77% 29.57 in 10.0 mi South 19.6 mph 26.5 mph N/A   Clear
9:35 AM 62.6 °F - 55.4 °F 77% 29.57 in 10.0 mi SSW 19.6 mph - N/A   Clear
9:55 AM 64.4 °F - 55.4 °F 73% 29.57 in 10.0 mi SSW 20.7 mph 27.6 mph N/A   Clear
10:15 AM 66.2 °F - 53.6 °F 64% 29.56 in 10.0 mi SSW 28.8 mph 35.7 mph N/A   Clear
10:35 AM 66.2 °F - 53.6 °F 64% 29.56 in 10.0 mi SW 27.6 mph 34.5 mph N/A   Clear
10:55 AM 68.0 °F - 51.8 °F 56% 29.56 in 10.0 mi SW 25.3 mph 35.7 mph N/A   Clear
11:15 AM 68.0 °F - 51.8 °F 56% 29.57 in 10.0 mi SW 25.3 mph 33.4 mph N/A   Clear
11:35 AM 69.8 °F - 50.0 °F 49% 29.56 in 10.0 mi SW 23.0 mph 32.2 mph N/A   Clear
11:55 AM 71.6 °F - 50.0 °F 46% 29.56 in 10.0 mi SW 25.3 mph 35.7 mph N/A   Clear
12:15 PM 71.6 °F - 48.2 °F 43% 29.55 in 10.0 mi SW 24.2 mph 31.1 mph N/A   Clear
12:35 PM 73.4 °F - 48.2 °F 41% 29.54 in 10.0 mi SW 18.4 mph 27.6 mph N/A   Clear
12:55 PM 73.4 °F - 48.2 °F 41% 29.53 in 10.0 mi SSW 24.2 mph 35.7 mph N/A   Clear
1:15 PM 75.2 °F - 48.2 °F 38% 29.53 in 10.0 mi SSW 23.0 mph 31.1 mph N/A   Clear
1:35 PM 75.2 °F - 51.8 °F 44% 29.52 in 10.0 mi SSW 25.3 mph - N/A   Clear
1:55 PM 75.2 °F - 51.8 °F 44% 29.51 in 10.0 mi SSW 25.3 mph 33.4 mph N/A   Clear
2:15 PM 75.2 °F - 51.8 °F 44% 29.49 in 10.0 mi South 23.0 mph - N/A   Clear
2:35 PM 75.2 °F - 53.6 °F 47% 29.50 in 10.0 mi SSW 19.6 mph 29.9 mph N/A   Clear
2:55 PM 73.4 °F - 55.4 °F 53% 29.49 in 10.0 mi South 27.6 mph - N/A   Clear
3:15 PM 73.4 °F - 55.4 °F 53% 29.49 in 10.0 mi South 25.3 mph 34.5 mph N/A   Partly Cloudy
3:35 PM 71.6 °F - 55.4 °F 57% 29.49 in 10.0 mi South 28.8 mph 35.7 mph N/A   Scattered Clouds
3:55 PM 71.6 °F - 55.4 °F 57% 29.50 in 10.0 mi South 29.9 mph 36.8 mph N/A   Partly Cloudy
4:15 PM 69.8 °F - 55.4 °F 60% 29.50 in 10.0 mi South 29.9 mph 36.8 mph N/A   Clear
4:35 PM 68.0 °F - 55.4 °F 64% 29.50 in 10.0 mi South 20.7 mph 34.5 mph N/A   Clear
4:55 PM 68.0 °F - 55.4 °F 64% 29.50 in 10.0 mi South 19.6 mph - N/A   Partly Cloudy
5:15 PM 68.0 °F - 55.4 °F 64% 29.50 in 10.0 mi South 20.7 mph 26.5 mph N/A   Mostly Cloudy
5:35 PM 68.0 °F - 55.4 °F 64% 29.49 in 10.0 mi South 24.2 mph 31.1 mph N/A   Overcast
5:55 PM 66.2 °F - 55.4 °F 68% 29.49 in 10.0 mi South 20.7 mph 28.8 mph N/A   Mostly Cloudy
6:15 PM 66.2 °F - 57.2 °F 73% 29.48 in 10.0 mi South 23.0 mph 31.1 mph N/A   Clear
6:35 PM 64.4 °F - 55.4 °F 73% 29.47 in 10.0 mi South 23.0 mph 32.2 mph N/A   Clear
6:55 PM 66.2 °F - 57.2 °F 73% 29.45 in 10.0 mi South 29.9 mph 40.3 mph N/A   Partly Cloudy
7:15 PM 66.2 °F - 57.2 °F 73% 29.45 in 10.0 mi South 31.1 mph 39.1 mph N/A   Partly Cloudy
7:35 PM 66.2 °F - 55.4 °F 68% 29.44 in 10.0 mi South 35.7 mph 48.3 mph N/A   Clear
7:55 PM 64.4 °F - 55.4 °F 73% 29.44 in 10.0 mi South 31.1 mph 43.7 mph N/A   Clear
8:15 PM 64.4 °F - 57.2 °F 77% 29.45 in 10.0 mi South 28.8 mph 36.8 mph N/A   Clear
8:35 PM 64.4 °F - 57.2 °F 77% 29.47 in 10.0 mi SSW 26.5 mph 35.7 mph N/A   Mostly Cloudy
8:55 PM 62.6 °F - 53.6 °F 72% 29.50 in 10.0 mi West 16.1 mph 36.8 mph N/A   Overcast
9:35 PM 51.8 °F - 50.0 °F 94% 29.55 in 5.0 mi WNW 12.7 mph - N/A Rain Light Rain
10:15 PM 51.8 °F - 50.0 °F 94% 29.61 in 3.0 mi SW 9.2 mph - N/A   Light Drizzle
10:35 PM 51.8 °F - 50.0 °F 94% 29.57 in 4.0 mi West 19.6 mph - N/A Rain Rain
10:55 PM 48.2 °F - 48.2 °F 100% 29.60 in 4.0 mi West 20.7 mph - 0.12 in Rain Light Rain
11:15 PM 46.4 °F 41.1 °F 46.4 °F 100% 29.56 in 3.0 mi NW 11.5 mph 21.9 mph N/A Rain Rain
11:35 PM 46.4 °F 43.5 °F 46.4 °F 100% 29.59 in 10.0 mi West 5.8 mph 15.0 mph N/A   Overcast
11:55 PM 46.4 °F 39.2 °F 44.6 °F 93% 29.62 in 10.0 mi WNW 18.4 mph - 0.06 in   Overcast